Location: *
(17.3280°S, 114.7300°W)
Time: 06:26:33
(UTC+00:00)

DNEPR-1 R/B - Pass Details

Date: 05 August 2020
Orbit: 572 x 1350 km, 64.6° (Epoch: 20 September)

Event Time Altitude Azimuth Distance (km) Brightness Sun altitude
Exits shadow 13:12:24 - 313° (NW) 2,581 6.4 -12.4°
Reaches altitude 10° 13:14:20 10° 302° (WNW) 1,871 5.6 -12.0°
Maximum altitude 13:17:52 28° 242° (WSW) 1,116 4.3 -11.2°
Drops below altitude 10° 13:21:37 10° 183° (S) 1,979 6.0 -10.3°
Sets 13:24:16 0° 170° (S) 2,969 7.0 -9.7°
